Вернуться в каталог

STARLINK-35178

АктивенСвязьSSO
NORAD 65610·PAYLOAD·🇺🇸 United States

Запущен Sep 13, 2025 с Cape Canaveral Space Force Station

Loading…

Ближайшие Пролёты (ближайшие 24 часа)

TLE

СвежийSource: CelesTrak SupGP

Эпоха: Sep 14, 2026, 20:54 UTC

1 65610C 25207U   26257.87131944  .02238300  00000+0  11130+0 0  2572
2 65610  97.2842 320.5474 0001454  81.8810 138.2588 15.16587975    17

Отслеживайте STARLINK-35178 в реальном времени с AllMySat

Download on the App Store